FREGAT DEB, 45638

Orbit data source: Space-Track

FREGAT DEB, 45638 is space debris in LEO originally from a launch on Mon, 18 Jul 2011 UTC launched from the Tyuratam Missile And Space Complex (TTMTR). Debris objects in space refer to the collection of defunct objects orbiting the Earth. Examples of debris include non-operational satellites, rocket bodies, and fragments generated from explosions, collisions, or faulty payload assembly.

Loading next visibility...
Identifier
45638, 2011-037AE
Orbit
LEO
Last TLE update
1 day ago
Origin
Manufacturer
Lavochkin
Mission
Spacecraft
Bus & Motor
Unknown
Mass
Unknown
Launch date (UTC)
2011-07-18 (14 years ago)
Launch vehicle
Unknown
Launch site
Tyuratam Missile And Space Complex (TTMTR)
Object type
Payload
Rocket body
Debris
Shape & HBR
Unknown
Radar Cross Section
Small (<0.1 m²)

Expand to show TLE details & history

TLE from 1 day ago
0 FREGAT DEB
1 45638U 11037AE  25182.17817301  .00028634  00000-0  21186-2 0  9997
2 45638  51.4018 244.1670 1308076   1.9272 358.6004 12.72222075219858
Epoch: 2025-07-01T04:16Z
TLE epoch observation values (Epoch: 2025-07-01T04:16:34.148Z)
Latitude
-0.00007°
Longitude
-99.45269°
Altitude
360.07 km
Speed
8.181 km/s
True Right ascension
16h 16m 40s
True Declination
0° 00' 00"
Sunlit
Object was in full shadow at epoch
Visualization orbit readout
Latitude
35.60626°
Longitude
42.46092°
Altitude
1,901.452 km
Speed
6.704 km/s
Apparent Right ascension
03h 08m 10s
Apparent Declination
3° 57' 01"
Sunlit
Object is in daylight
Visualization observer readout
Local Sidereal Time
17:06:05
Azimuth
38.822° NE
Elevation
-38.455°
Doppler factor
1
Orbital elements
Apogee altitude
2,387.354 km
Perigee altitude
359.436 km
Semi-major axis
7,751.532 km
Eccentricity
0.13081
Inclination
51.4018°
RAAN
244.167°
Arg. of periapsis
1.9272°
True anomaly
Unknown
Mean anomaly
358.6004°
Eccentric anomaly
Unknown
Mean motion
3.18025 °/min
Orbital period
113.2 mins
BSTAR
0.0021186
Loading maneuver chart data...
Loading SW <> Apogee altitude chart data...
Loading historical data...
Loading historical data...
Loading historical data...
Loading historical data...
Loading historical data...
Loading historical data...
Loading historical data...

FREGAT DEB Visibility forecast

Observer location: undefined°, undefined°

Span
Click to sort rows by Start time (UTC) header in descending order
Start Az.
Max El. time (UTC)
Max El. Az.
Max El.
End time (UTC)
End Az.
8 mins2025-07-02 06:50:31.856Z221.822° SW2025-07-02 06:53:31.856Z136.247° SSE43.653°2025-07-02 06:58:31.856Z56.041° ENE
9 mins2025-07-02 08:49:31.856Z297.45° NW2025-07-02 08:52:31.856Z352.765° N29.881°2025-07-02 08:58:31.856Z50.991° ENE
14 mins2025-07-02 10:47:31.856Z313.301° NW2025-07-02 10:52:31.856Z14.185° NNE31.362°2025-07-02 11:01:31.856Z78.272° E
19 mins2025-07-02 12:45:31.856Z310.386° NW2025-07-02 12:52:31.856Z34.818° NE43.585°2025-07-02 13:04:31.856Z117.366° SE
20 mins2025-07-02 14:44:31.856Z292.025° WNW2025-07-02 14:51:31.856Z232.854° WSW37.083°2025-07-02 15:04:31.856Z159.708° S
9 mins2025-07-02 16:46:31.856Z260.753° W2025-07-02 16:50:31.856Z240.853° WSW13.35°2025-07-02 16:55:31.856Z218.558° SW
|